Location: Mahannah Oil Field
(37.4664°N, 96.6003°W)
Time: 02:01:07
(UTC+00:00)

deb Explorer IX - Pass Details

Date: 20 June 2021
Orbit: 544 x 1093 km, 38.8° (Epoch: 02 August)

Event Time Altitude Azimuth Distance (km) Brightness Sun altitude
Exits shadow 10:16:53 - 189° (S) 2,565 ? -8.8°
Reaches altitude 10° 10:19:56 10° 160° (SSE) 1,903 ? -8.3°
Maximum altitude 10:21:02 11° 145° (SE) 1,825 ? -8.1°
Drops below altitude 10° 10:22:08 10° 129° (SE) 1,862 ? -8.0°
Sets 10:26:02 0° 92° (E) 2,706 ? -7.3°
